STARLINK-34440

Last updated on Sat Jul 19 2025 00:02:07 GMT+0000 (Coordinated Universal Time)

1 64614U 25137W 25199.58335648 -.01533111 00000+0 -16337-1 0 9994 2 64614 53.1600 355.2404 0000960 95.1366 306.3730 15.66250363 4751
UTC large
Height (km)
Speed (km/s)
/
Latitude / Longitude
Inclination (degrees)
Orbital Period (minutes)
Azimuth
Elevation
Range (km)
Doppler Factor

Next 0 passes for location: London (51.5072 / 0.1276)

Sorry there are no passes over London.